Temperature
6 5 5 5 4 4 4 4 3 3 3 2 2 2 2 1 1 1 1 0 0 0 -0 -0 -0 -1 -1 -1 -1 -1 -2 -2 -2 -1 -1 -1 -1 -1 -1 -1 -1 -1 -1
5 5 4 4 4 3 3 3 2 2 2 1 1 1 1 1 0 0 -0 -0 -1 -1 -1 -1 -1 -1 -2 -2 -2 -2 -2 -2 -2 -2 -2 -1 -2 -2 -2 -2 -2 -2 -2
4 4 3 3 3 2 2 2 2 1 1 1 0 0 -0 -0 -0 -0 -1 -1 -1 -1 -2 -2 -2 -2 -2 -2 -2 -2 -2 -2 -3 -3 -2 -2 -2 -3 -3 -3 -3 -3 -3
3 3 3 2 2 2 1 1 1 0 0 0 -0 -0 -1 -1 -1 -1 -1 -2 -2 -2 -2 -2 -2 -3 -3 -3 -3 -3 -3 -3 -3 -3 -3 -3 -3 -3 -3 -4 -4 -4 -4
3 2 2 1 1 1 1 0 0 -0 -1 -1 -1 -1 -1 -1 -2 -2 -2 -3 -3 -3 -3 -3 -3 -3 -3 -3 -3 -3 -3 -3 -3 -3 -3 -3 -3 -3 -4 -4 -4 -4 -4
2 1 1 1 0 0 -0 -0 -1 -1 -1 -2 -2 -2 -2 -2 -2 -3 -3 -3 -3 -3 -3 -3 -3 -3 -3 -3 -3 -3 -3 -3 -3 -3 -3 -3 -3 -3 -4 -4 -4 -5 -5
1 1 0 0 -0 -1 -1 -1 -2 -2 -2 -2 -2 -2 -3 -3 -3 -3 -4 -4 -4 -4 -4 -4 -4 -3 -3 -3 -3 -3 -3 -3 -3 -3 -3 -3 -3 -3 -4 -4 -4 -5 -5
0 0 -0 -1 -1 -1 -2 -2 -2 -2 -3 -3 -3 -3 -3 -3 -4 -4 -4 -4 -4 -4 -4 -4 -4 -4 -4 -4 -4 -4 -4 -4 -4 -3 -4 -3 -3 -3 -4 -4 -4 -5 -5
-0 -1 -1 -1 -2 -2 -3 -3 -3 -3 -3 -3 -4 -4 -4 -4 -4 -4 -5 -5 -5 -5 -4 -4 -4 -4 -4 -4 -4 -4 -4 -4 -4 -4 -4 -4 -4 -4 -4 -4 -4 -5 -5
-1 -1 -1 -2 -2 -3 -3 -3 -3 -4 -4 -4 -4 -4 -4 -4 -4 -5 -5 -5 -5 -5 -5 -5 -4 -4 -4 -4 -4 -4 -4 -4 -4 -4 -4 -4 -4 -4 -4 -4 -4 -5 -5
-1 -2 -2 -3 -3 -3 -4 -4 -4 -4 -5 -5 -5 -5 -5 -5 -5 -5 -5 -5 -5 -5 -5 -5 -5 -5 -5 -4 -4 -4 -4 -4 -4 -4 -4 -4 -4 -4 -4 -4 -5 -5 -5
-2 -2 -3 -3 -4 -4 -4 -5 -5 -5 -5 -5 -5 -5 -5 -5 -5 -6 -6 -5 -5 -5 -5 -5 -5 -5 -5 -5 -5 -4 -4 -5 -5 -5 -5 -5 -5 -5 -5 -5 -5 -5 -5
-3 -3 -4 -4 -4 -5 -5 -5 -5 -5 -6 -6 -6 -6 -6 -6 -6 -6 -6 -6 -6 -5 -5 -5 -5 -5 -5 -5 -5 -5 -5 -5 -5 -5 -5 -5 -5 -5 -5 -5 -5 -5 -5
-4 -4 -4 -4 -5 -5 -5 -6 -6 -6 -6 -6 -6 -6 -6 -6 -6 -6 -6 -6 -6 -6 -6 -6 -5 -5 -5 -5 -5 -5 -6 -6 -6 -6 -6 -6 -6 -6 -6 -6 -6 -6 -6
-4 -4 -5 -5 -5 -6 -6 -6 -6 -6 -6 -6 -6 -6 -6 -6 -6 -6 -6 -6 -6 -6 -6 -6 -6 -6 -6 -6 -6 -6 -6 -6 -6 -6 -6 -6 -6 -6 -6 -6 -6 -6 -7
-5 -5 -5 -6 -6 -6 -6 -6 -6 -6 -6 -6 -7 -7 -7 -7 -6 -6 -6 -6 -6 -6 -6 -6 -6 -6 -6 -6 -6 -6 -6 -6 -7 -7 -7 -7 -7 -7 -7 -7 -7 -7 -7
-5 -6 -6 -6 -6 -7 -7 -7 -7 -6 -6 -7 -7 -7 -7 -7 -7 -7 -7 -7 -7 -7 -7 -7 -7 -7 -7 -7 -7 -7 -7 -7 -7 -7 -7 -7 -7 -7 -7 -7 -7 -7 -7
-6 -6 -6 -7 -7 -7 -7 -7 -7 -7 -7 -7 -7 -7 -7 -7 -7 -7 -7 -7 -7 -7 -8 -8 -8 -8 -8 -8 -8 -7 -7 -7 -7 -7 -7 -7 -7 -7 -7 -7 -7 -7 -8
-6 -6 -7 -7 -7 -7 -7 -7 -7 -7 -8 -8 -7 -7 -7 -7 -7 -7 -7 -8 -8 -8 -8 -8 -8 -8 -8 -8 -8 -8 -8 -8 -8 -8 -8 -8 -8 -8 -8 -8 -8 -8 -8
-6 -6 -7 -7 -7 -7 -8 -8 -8 -8 -8 -8 -8 -8 -8 -8 -8 -8 -8 -8 -8 -8 -8 -8 -8 -8 -8 -8 -8 -8 -8 -8 -8 -8 -8 -8 -8 -8 -8 -8 -8 -8 -8
-7 -7 -7 -7 -8 -8 -8 -8 -8 -8 -8 -8 -8 -8 -8 -8 -8 -8 -8 -8 -8 -8 -9 -9 -8 -8 -8 -8 -8 -8 -8 -8 -8 -8 -8 -8 -8 -8 -8 -8 -8 -8 -9
-7 -7 -8 -8 -8 -8 -8 -8 -8 -9 -9 -9 -9 -9 -8 -8 -8 -8 -8 -8 -9 -9 -9 -9 -9 -9 -9 -9 -9 -9 -9 -9 -9 -9 -9 -9 -9 -9 -9 -9 -9 -9 -9
-7 -8 -8 -8 -8 -8 -9 -9 -9 -9 -9 -9 -9 -9 -9 -9 -9 -9 -9 -9 -9 -9 -9 -9 -9 -9 -9 -9 -9 -9 -9 -9 -9 -9 -9 -9 -9 -9 -9 -9 -9 -9 -9
-8 -8 -8 -8 -9 -9 -9 -9 -9 -9 -9 -9 -9 -9 -9 -9 -9 -9 -9 -9 -9 -9 -9 -9 -9 -9 -9 -9 -9 -9 -9 -9 -9 -9 -9 -9 -9 -9 -9 -9 -9 -10 -10
-8 -8 -9 -9 -9 -9 -10 -10 -10 -10 -10 -10 -10 -10 -9 -9 -9 -9 -9 -9 -9 -9 -9 -9 -9 -9 -9 -9 -9 -9 -9 -9 -9 -9 -9 -9 -9 -9 -10 -10 -10 -10 -10
-8 -9 -9 -9 -10 -10 -10 -10 -10 -10 -10 -10 -10 -10 -10 -10 -9 -9 -9 -9 -9 -9 -9 -9 -9 -9 -9 -9 -9 -9 -9 -9 -9 -9 -9 -10 -10 -10 -10 -10 -10 -10 -10
Wind_Speed
9 10 11 12 12 13 13 14 14 15 15 16 16 17 17 17 17 17 18 19 19 19 19 19 20 20 16 16 15 16 16 16 20 22 18 17 18 18 17 17 19 19 19
10 12 13 13 13 14 15 15 16 16 16 17 17 18 18 18 18 19 19 19 20 20 20 20 21 17 19 17 16 17 17 17 18 23 21 17 19 18 18 18 16 15 16
12 13 14 15 15 16 16 17 17 17 18 18 18 18 19 19 18 19 19 20 20 21 20 20 20 19 19 17 17 17 16 16 16 19 21 17 15 14 16 17 18 17 17
13 14 15 16 16 17 17 17 17 18 18 19 19 19 19 19 18 18 19 19 20 20 20 19 20 19 19 19 17 18 17 17 16 17 18 16 14 13 12 14 15 15 15
14 15 16 17 17 17 17 18 18 18 18 19 19 19 19 17 16 17 17 19 20 20 20 20 20 22 24 21 17 16 15 15 15 16 17 16 14 11 12 13 15 14 15
15 16 17 17 17 17 18 18 19 19 19 19 19 19 19 16 20 24 22 19 19 19 19 19 19 21 24 28 30 29 24 18 17 16 16 17 16 15 13 13 13 13 13
16 17 17 17 18 18 19 19 20 20 20 20 19 19 20 20 23 26 26 21 20 19 19 18 16 16 21 17 21 25 26 28 27 19 18 18 17 15 14 15 15 14 15
17 17 17 18 19 19 19 20 20 19 19 19 19 20 20 20 24 25 26 21 19 19 18 17 17 17 16 17 16 16 17 19 20 17 15 16 15 13 13 14 15 15 15
17 18 18 19 19 20 20 21 20 19 19 19 19 20 20 21 23 24 24 17 15 17 17 16 16 16 21 23 17 15 17 16 19 23 24 22 24 24 18 11 12 11 12
18 19 19 19 20 20 21 21 19 19 19 19 19 19 20 20 22 24 24 14 15 15 14 14 18 19 22 23 16 14 16 15 13 13 15 17 17 17 21 14 12 12 9
19 19 19 19 20 20 20 19 19 18 19 19 20 18 18 19 21 23 23 14 14 14 13 12 12 19 22 22 20 15 17 16 13 12 11 11 10 10 10 10 10 11 11
19 20 20 20 19 17 19 19 19 19 19 18 18 18 15 15 17 19 23 22 20 15 14 12 13 20 22 22 18 18 20 17 10 10 10 10 9 9 9 9 10 11 10
20 20 20 20 19 18 18 19 18 16 15 15 15 15 15 14 15 21 22 23 23 16 13 19 21 23 22 17 18 20 16 10 9 9 9 9 8 8 7 7 8 9 10
20 20 19 19 19 18 16 15 15 15 15 15 15 15 15 15 14 13 13 15 17 15 14 17 21 20 16 16 15 13 9 8 9 9 8 8 7 6 7 7 7 8 8
20 19 19 17 18 17 16 15 16 16 16 17 15 15 16 16 17 22 19 15 14 15 16 13 11 10 9 9 9 8 8 7 8 7 8 7 7 7 7 7 7 8 9
18 17 15 15 15 15 16 17 18 19 24 25 23 22 18 21 26 26 26 25 25 23 17 12 11 10 10 10 9 8 7 7 7 7 7 7 7 7 7 7 7 9 10
18 17 15 15 15 15 15 16 17 18 20 22 22 23 22 24 26 25 25 24 22 20 12 11 11 10 10 9 9 8 8 8 7 7 7 7 7 7 7 7 8 9 10
18 17 16 15 15 15 15 16 15 17 17 15 16 20 22 23 23 23 23 19 13 11 9 10 10 10 10 9 9 9 8 7 7 7 7 7 7 7 7 8 8 10 9
17 14 14 15 15 15 15 15 15 16 16 16 15 16 19 20 21 20 18 11 11 11 10 10 10 10 10 9 9 8 8 7 7 7 7 7 7 7 8 8 8 11 10
15 19 18 16 15 15 15 15 15 15 15 15 15 14 14 15 13 13 11 10 10 11 11 11 10 10 10 9 8 8 7 7 7 7 7 7 7 7 8 9 9 9 9
14 16 20 17 14 14 14 15 15 14 14 14 14 16 20 15 13 14 12 11 10 11 11 11 10 10 9 8 8 8 8 8 7 7 7 7 7 7 7 8 8 9 9
14 14 14 14 14 14 15 15 14 14 15 16 15 16 20 14 12 12 12 11 11 10 10 10 10 9 9 8 8 8 8 8 8 7 7 7 7 7 7 7 8 8 9
14 15 15 14 14 17 17 14 14 14 15 15 15 14 13 12 12 12 12 12 11 11 10 9 10 9 9 8 8 8 9 9 8 8 8 8 7 7 7 8 9 9 9
15 15 15 15 14 14 15 15 14 14 15 15 15 14 14 13 13 13 13 12 11 11 10 9 10 11 13 11 9 8 8 9 8 8 10 9 9 8 8 8 9 10 10
14 14 14 14 14 14 15 15 15 15 15 14 14 14 14 13 13 13 12 11 12 11 12 11 10 10 12 13 12 10 12 14 14 10 8 9 10 10 9 9 9 10 10
14 14 14 13 14 14 14 15 15 15 15 15 14 14 14 13 13 13 12 11 11 11 11 11 11 13 14 12 14 15 17 17 17 16 11 9 10 10 10 9 11 11 12
Wind_Direction
322 319 314 313 310 306 302 300 299 297 296 294 292 291 288 286 284 280 275 274 272 271 267 263 261 260 259 256 253 250 249 247 257 267 265 263 257 251 250 248 250 249 248
318 314 311 309 307 305 303 303 301 298 296 294 292 290 288 286 284 282 281 278 276 274 271 268 266 264 260 259 256 253 251 248 251 263 267 263 258 253 250 249 249 249 249
315 311 309 308 307 306 305 304 302 299 297 295 292 290 289 288 286 283 282 281 278 276 274 271 269 267 264 260 258 256 255 253 251 257 264 264 260 254 250 248 248 250 251
313 310 308 308 307 305 304 303 301 299 297 296 294 291 289 287 284 282 282 281 279 277 274 271 269 266 264 262 259 257 257 255 253 255 261 262 257 250 243 244 246 244 246
311 308 307 307 306 304 303 302 301 300 297 295 293 291 289 287 283 283 283 281 279 276 273 270 267 265 263 262 259 256 253 253 252 253 256 258 253 244 238 235 241 245 245
308 307 307 306 305 304 303 303 302 300 298 296 294 293 292 288 287 288 288 285 283 280 278 275 272 269 267 266 265 263 257 252 249 250 254 253 253 246 240 234 235 238 243
306 305 306 306 305 304 304 303 302 301 300 298 296 295 293 292 292 292 292 291 286 283 281 279 276 273 273 270 269 269 269 266 260 255 254 254 254 248 241 237 231 231 237
305 305 306 307 305 305 304 303 303 302 300 299 297 297 295 294 296 296 297 294 288 285 283 280 278 276 274 273 270 266 265 265 265 262 257 258 255 250 240 237 237 237 241
305 307 308 307 306 305 304 304 304 303 301 299 298 298 296 297 298 299 298 295 290 287 284 279 277 274 275 276 274 269 268 266 265 263 258 256 256 253 243 233 226 227 233
307 307 306 305 304 303 303 303 302 301 299 299 297 297 296 296 298 300 300 296 292 291 288 282 279 277 278 279 274 270 270 270 267 266 261 258 258 258 251 234 222 223 226
308 306 305 304 303 302 302 301 302 301 299 299 298 297 296 296 299 300 300 298 294 293 291 289 284 283 283 283 281 273 271 272 267 262 259 253 248 242 242 231 216 218 222
308 305 304 304 303 301 301 302 302 301 300 301 301 301 299 299 298 300 302 301 300 297 294 292 288 289 288 287 284 278 276 276 270 261 257 251 244 239 234 226 214 215 219
307 305 305 304 303 302 301 302 302 301 299 300 300 299 301 301 301 301 302 303 302 299 291 291 293 294 293 290 286 284 281 274 267 260 255 252 245 238 228 221 213 212 218
305 305 305 305 304 303 301 299 298 298 298 298 298 299 301 301 301 303 303 304 301 299 296 294 293 290 287 283 283 283 276 268 263 261 260 256 249 236 225 219 218 211 216
305 304 305 304 302 303 301 298 296 293 292 295 296 297 299 299 299 304 306 305 304 300 302 295 291 289 285 281 278 274 268 264 264 260 258 253 244 235 228 220 219 216 219
305 305 304 304 303 302 302 301 293 290 295 295 292 293 294 294 300 304 306 307 307 306 304 295 293 290 288 287 285 278 269 262 259 256 254 250 245 237 230 222 219 220 223
302 302 301 301 301 302 302 303 304 303 300 298 296 297 297 300 303 305 307 308 307 307 300 293 292 290 287 285 281 277 273 269 262 254 251 249 244 239 232 226 221 223 225
302 300 299 298 299 299 300 301 301 303 306 306 302 300 301 302 305 307 308 309 303 301 294 293 293 290 287 283 280 276 273 269 259 253 249 246 242 239 235 231 227 225 226
302 300 300 299 298 298 299 300 300 300 300 302 304 304 305 307 306 304 306 300 298 299 298 294 292 290 287 283 279 275 270 265 259 253 250 247 244 241 238 235 234 231 229
301 299 301 300 299 299 300 301 301 300 300 300 302 305 309 308 306 307 306 300 296 295 295 293 292 290 287 283 279 274 270 264 258 253 252 249 245 241 240 238 236 234 231
302 302 302 300 298 299 301 301 301 300 300 300 299 301 304 305 303 303 302 298 296 295 294 292 289 288 285 281 277 272 268 266 261 258 256 252 247 244 242 241 237 235 234
300 298 300 300 300 300 301 301 301 300 300 300 300 301 303 301 298 297 297 296 296 294 291 289 287 286 284 279 275 272 268 266 263 259 257 253 249 246 244 241 239 236 233
298 298 300 300 300 301 303 301 300 299 300 300 300 300 300 299 298 297 297 297 295 292 290 287 285 283 282 278 273 268 267 266 265 262 258 255 250 247 244 241 239 238 236
299 300 301 302 303 302 301 302 301 300 300 301 301 299 298 298 297 296 296 295 293 291 289 287 284 283 283 282 276 268 265 266 266 261 256 254 252 250 246 244 243 240 239
301 301 302 301 302 302 302 302 302 301 301 301 300 299 298 298 297 297 296 294 293 289 289 288 285 283 282 281 278 274 270 268 266 264 256 252 251 247 247 245 244 244 241
302 301 301 300 300 300 300 301 301 302 302 301 299 298 298 298 297 297 296 294 293 291 290 289 286 286 285 283 280 277 275 272 269 265 259 255 251 249 245 246 246 244 244
Height
1513 1509 1505 1501 1497 1492 1488 1483 1478 1473 1468 1463 1458 1454 1449 1445 1441 1437 1432 1429 1425 1421 1418 1415 1411 1410 1407 1405 1402 1400 1398 1395 1388 1381 1385 1386 1386 1384 1383 1382 1382 1381 1380
1508 1504 1500 1495 1490 1486 1481 1476 1470 1465 1460 1455 1450 1445 1440 1436 1431 1427 1423 1419 1415 1411 1407 1404 1401 1399 1396 1394 1391 1389 1386 1385 1381 1374 1372 1375 1375 1374 1374 1373 1372 1371 1371
1503 1498 1493 1489 1484 1478 1473 1468 1462 1457 1451 1446 1441 1436 1431 1426 1421 1417 1413 1408 1404 1400 1397 1394 1390 1388 1385 1383 1380 1377 1375 1374 1371 1367 1361 1364 1364 1364 1364 1362 1362 1362 1361
1497 1492 1487 1482 1476 1471 1465 1459 1454 1448 1442 1437 1432 1426 1421 1416 1411 1407 1402 1397 1393 1389 1386 1383 1379 1377 1374 1372 1369 1366 1365 1363 1361 1357 1353 1353 1353 1353 1353 1352 1352 1352 1351
1490 1485 1480 1474 1469 1463 1457 1451 1446 1440 1434 1428 1422 1417 1411 1406 1401 1397 1392 1387 1382 1378 1374 1371 1368 1365 1362 1361 1358 1355 1354 1352 1350 1347 1344 1343 1343 1343 1342 1342 1342 1342 1342
1484 1478 1473 1467 1461 1455 1449 1443 1437 1431 1425 1419 1413 1408 1402 1397 1392 1388 1383 1378 1373 1368 1363 1360 1357 1354 1351 1349 1347 1345 1344 1341 1338 1337 1334 1332 1332 1333 1333 1333 1333 1333 1333
1477 1471 1466 1460 1454 1448 1441 1435 1429 1422 1416 1410 1405 1399 1393 1387 1383 1378 1373 1369 1363 1358 1353 1350 1346 1343 1341 1338 1335 1333 1332 1330 1329 1327 1323 1322 1322 1323 1324 1323 1323 1323 1323
1470 1464 1459 1452 1446 1440 1433 1427 1421 1414 1408 1401 1395 1390 1384 1378 1373 1368 1364 1359 1353 1348 1344 1340 1336 1333 1331 1328 1325 1322 1320 1318 1317 1316 1314 1312 1313 1313 1313 1314 1314 1314 1316
1464 1458 1452 1445 1438 1432 1425 1419 1413 1406 1399 1393 1387 1381 1375 1369 1364 1360 1355 1349 1344 1339 1335 1331 1328 1324 1321 1319 1316 1313 1310 1308 1307 1305 1304 1303 1303 1304 1304 1305 1305 1306 1306
1457 1450 1444 1438 1431 1424 1417 1411 1404 1398 1391 1384 1378 1372 1367 1361 1356 1351 1347 1342 1336 1331 1326 1322 1319 1316 1313 1311 1308 1304 1301 1299 1298 1296 1295 1294 1294 1294 1295 1295 1295 1297 1297
1449 1442 1436 1430 1423 1416 1409 1403 1396 1389 1383 1376 1370 1364 1359 1353 1348 1344 1340 1335 1330 1324 1319 1314 1311 1308 1305 1302 1300 1297 1293 1292 1289 1288 1286 1285 1285 1284 1285 1286 1287 1288 1289
1441 1434 1428 1422 1415 1408 1401 1395 1388 1382 1375 1368 1362 1356 1351 1346 1341 1336 1332 1328 1323 1318 1312 1308 1303 1300 1297 1294 1291 1288 1286 1284 1282 1280 1278 1277 1277 1277 1277 1278 1279 1280 1282
1433 1426 1420 1413 1407 1401 1394 1387 1381 1375 1368 1361 1355 1349 1343 1339 1334 1329 1325 1320 1315 1311 1305 1301 1297 1293 1289 1286 1283 1280 1278 1276 1274 1272 1271 1270 1270 1270 1270 1271 1272 1273 1275
1425 1418 1412 1405 1398 1392 1387 1380 1374 1368 1362 1355 1349 1343 1337 1331 1327 1322 1317 1313 1308 1303 1298 1293 1289 1285 1281 1278 1275 1272 1270 1268 1267 1265 1264 1264 1263 1263 1264 1265 1266 1267 1268
1417 1411 1404 1398 1391 1384 1378 1373 1367 1361 1356 1349 1343 1337 1331 1324 1320 1316 1312 1306 1301 1296 1291 1286 1281 1278 1274 1271 1268 1265 1263 1261 1260 1259 1258 1257 1257 1257 1257 1258 1259 1260 1262
1410 1403 1397 1390 1384 1377 1370 1363 1358 1354 1347 1342 1336 1331 1324 1319 1314 1309 1304 1299 1294 1289 1285 1279 1275 1271 1268 1265 1262 1259 1257 1255 1254 1253 1252 1252 1251 1251 1251 1252 1253 1254 1255
1403 1396 1389 1383 1377 1370 1364 1357 1349 1343 1339 1333 1328 1322 1317 1312 1307 1301 1297 1291 1287 1282 1278 1273 1269 1265 1262 1259 1256 1254 1252 1250 1248 1247 1246 1246 1246 1246 1246 1246 1247 1248 1249
1395 1389 1382 1376 1370 1363 1357 1351 1344 1336 1329 1323 1319 1315 1309 1304 1299 1294 1289 1284 1279 1275 1271 1267 1263 1260 1256 1253 1251 1248 1246 1244 1242 1241 1240 1240 1240 1240 1240 1240 1240 1241 1242
1387 1381 1375 1369 1363 1357 1351 1344 1338 1331 1324 1317 1311 1307 1303 1297 1292 1288 1283 1279 1274 1270 1266 1261 1258 1254 1251 1248 1245 1243 1241 1239 1237 1236 1235 1234 1234 1234 1234 1234 1234 1235 1236
1380 1374 1368 1362 1355 1350 1344 1338 1331 1325 1319 1312 1306 1301 1296 1290 1285 1281 1277 1273 1268 1264 1260 1256 1252 1248 1245 1242 1239 1237 1235 1233 1232 1231 1230 1229 1228 1228 1228 1228 1228 1229 1229
1372 1366 1361 1355 1349 1343 1337 1331 1325 1319 1313 1306 1301 1296 1291 1286 1280 1275 1271 1267 1263 1258 1254 1250 1246 1243 1240 1237 1234 1232 1230 1228 1227 1225 1224 1223 1223 1222 1222 1222 1222 1222 1222
1365 1359 1353 1348 1342 1336 1330 1324 1319 1313 1306 1300 1294 1289 1284 1280 1275 1270 1265 1261 1257 1252 1248 1244 1240 1237 1234 1231 1229 1227 1224 1223 1221 1220 1219 1218 1217 1216 1216 1215 1215 1215 1215
1359 1353 1347 1341 1335 1329 1323 1317 1312 1306 1300 1294 1288 1283 1278 1273 1268 1264 1259 1254 1250 1246 1242 1238 1234 1231 1228 1226 1223 1221 1219 1217 1215 1214 1213 1212 1211 1210 1209 1208 1208 1208 1208
1352 1346 1340 1334 1328 1322 1316 1310 1305 1299 1294 1288 1282 1277 1272 1267 1262 1257 1253 1248 1244 1240 1236 1232 1228 1225 1222 1219 1217 1214 1212 1211 1209 1208 1207 1205 1204 1203 1202 1202 1201 1201 1200
1344 1338 1333 1327 1321 1315 1309 1303 1298 1292 1287 1281 1276 1270 1265 1260 1256 1251 1246 1242 1237 1233 1230 1226 1222 1219 1216 1213 1210 1208 1206 1204 1203 1201 1200 1199 1197 1196 1195 1194 1194 1193 1193
1337 1331 1325 1320 1314 1308 1303 1297 1291 1286 1280 1275 1269 1264 1259 1254 1249 1244 1240 1236 1231 1227 1223 1220 1216 1213 1209 1206 1203 1201 1199 1197 1195 1194 1193 1192 1190 1189 1188 1187 1186 1185 1184